AUL598 UWKD-ULLI

Flight info

Callsign AUL598
Flight time N/A
Altitude 36000
Route APTAR1G APTAR L158 IRGOS T613 DOGOB M864 IBROT T784 ROKUR P164 PINOK N50 GENPA GENPA1B
Aircraft B738/M-SDE2E3FGHIRWXY/LB1

Departure

Time 2026-04-27 15:20
Airport Kazan International Airport (UWKD)

Arrival

Time N/A
Airport Pulkovo Airport (ULLI)
Time Latitude Longitude Altitude Speed Heading
2026-04-27 14:52 55.60692 49.30016 415 ft 0 kts 34°
2026-04-27 14:55 55.60691 49.30016 415 ft 0 kts 34°
2026-04-27 14:59 55.60691 49.30015 415 ft 1 kts 34°
2026-04-27 14:59 55.60671 49.29991 415 ft 4 kts 34°
2026-04-27 15:00 55.60654 49.29970 409 ft 4 kts 19°
2026-04-27 15:00 55.60630 49.29970 405 ft 4 kts 328°
2026-04-27 15:00 55.60611 49.30000 411 ft 2 kts 305°
2026-04-27 15:00 55.60610 49.30003 411 ft 2 kts 304°
2026-04-27 15:03 55.60615 49.29990 408 ft 5 kts 304°
2026-04-27 15:03 55.60637 49.29933 407 ft 6 kts 304°
2026-04-27 15:03 55.60666 49.29857 412 ft 8 kts 302°
2026-04-27 15:03 55.60682 49.29817 413 ft 0 kts 304°
2026-04-27 15:04 55.60681 49.29817 413 ft 0 kts 304°
2026-04-27 15:08 55.60683 49.29814 412 ft 2 kts 305°
2026-04-27 15:08 55.60709 49.29749 413 ft 11 kts 304°
2026-04-27 15:09 55.60760 49.29618 415 ft 13 kts 307°
2026-04-27 15:09 55.60811 49.29488 412 ft 13 kts 298°
2026-04-27 15:09 55.60767 49.29371 413 ft 12 kts 214°
2026-04-27 15:09 55.60697 49.29285 410 ft 12 kts 214°
2026-04-27 15:10 55.60629 49.29204 415 ft 12 kts 214°
2026-04-27 15:10 55.60581 49.29092 412 ft 11 kts 249°
2026-04-27 15:10 55.60578 49.28954 415 ft 11 kts 274°
2026-04-27 15:10 55.60581 49.28862 415 ft 11 kts 273°
2026-04-27 15:11 55.60589 49.28730 410 ft 11 kts 277°
2026-04-27 15:11 55.60603 49.28604 406 ft 10 kts 288°
2026-04-27 15:11 55.60638 49.28495 411 ft 10 kts 304°
2026-04-27 15:11 55.60678 49.28391 411 ft 11 kts 304°
2026-04-27 15:12 55.60726 49.28268 411 ft 13 kts 304°
2026-04-27 15:12 55.60780 49.28127 411 ft 15 kts 304°
2026-04-27 15:12 55.60842 49.27969 410 ft 16 kts 304°
2026-04-27 15:12 55.60910 49.27796 412 ft 18 kts 305°
2026-04-27 15:13 55.60983 49.27609 412 ft 19 kts 304°
2026-04-27 15:13 55.61061 49.27407 413 ft 21 kts 304°
2026-04-27 15:13 55.61143 49.27191 412 ft 22 kts 303°
2026-04-27 15:13 55.61231 49.26968 412 ft 22 kts 304°
2026-04-27 15:14 55.61316 49.26747 414 ft 21 kts 304°
2026-04-27 15:14 55.61400 49.26534 410 ft 21 kts 306°
2026-04-27 15:14 55.61482 49.26327 411 ft 20 kts 303°
2026-04-27 15:14 55.61559 49.26124 412 ft 20 kts 304°
2026-04-27 15:15 55.61635 49.25928 411 ft 19 kts 304°
2026-04-27 15:15 55.61708 49.25738 412 ft 18 kts 304°
2026-04-27 15:15 55.61780 49.25552 413 ft 19 kts 303°
2026-04-27 15:15 55.61859 49.25354 411 ft 21 kts 303°
2026-04-27 15:16 55.61805 49.25201 405 ft 18 kts 203°
2026-04-27 15:16 55.61682 49.25164 409 ft 17 kts 141°
2026-04-27 15:16 55.61618 49.25320 410 ft 15 kts 122°
2026-04-27 15:16 55.61565 49.25464 409 ft 12 kts 123°
2026-04-27 15:17 55.61523 49.25574 409 ft 10 kts 124°
2026-04-27 15:17 55.61482 49.25682 412 ft 11 kts 124°
2026-04-27 15:17 55.61446 49.25772 410 ft 9 kts 125°
2026-04-27 15:17 55.61432 49.25808 410 ft 9 kts 125°
2026-04-27 15:18 55.61432 49.25809 410 ft 9 kts 125°
2026-04-27 15:18 55.61390 49.25912 408 ft 12 kts 126°
2026-04-27 15:18 55.61342 49.26028 409 ft 11 kts 126°
2026-04-27 15:18 55.61300 49.26130 409 ft 10 kts 124°
2026-04-27 15:19 55.61258 49.26228 408 ft 10 kts 131°
2026-04-27 15:19 55.61218 49.26331 410 ft 12 kts 123°
2026-04-27 15:19 55.61037 49.26808 412 ft 93 kts 124°
2026-04-27 15:19 55.60493 49.28152 460 ft 170 kts 130°
2026-04-27 15:20 55.59851 49.29880 1166 ft 182 kts 130°
2026-04-27 15:20 55.59145 49.31739 2307 ft 179 kts 133°
2026-04-27 15:20 55.58407 49.33656 3030 ft 201 kts 133°
2026-04-27 15:20 55.57569 49.35802 3378 ft 222 kts 132°
2026-04-27 15:21 55.56679 49.38088 3982 ft 229 kts 132°
2026-04-27 15:21 55.55772 49.40403 4468 ft 235 kts 133°
2026-04-27 15:21 55.54713 49.42625 4804 ft 241 kts 152°
2026-04-27 15:21 55.53156 49.43521 5162 ft 237 kts 186°
2026-04-27 15:22 55.51602 49.42764 5777 ft 232 kts 215°
2026-04-27 15:22 55.50455 49.40794 6782 ft 235 kts 236°
2026-04-27 15:22 55.49687 49.38197 7598 ft 239 kts 235°
2026-04-27 15:22 55.48595 49.36020 7976 ft 240 kts 218°
2026-04-27 15:23 55.47149 49.34542 8020 ft 241 kts 205°
2026-04-27 15:23 55.45597 49.33388 8013 ft 243 kts 204°
2026-04-27 15:23 55.44040 49.32241 8020 ft 243 kts 205°
2026-04-27 15:23 55.42490 49.31018 8014 ft 242 kts 212°
2026-04-27 15:24 55.41308 49.28950 8021 ft 243 kts 237°
2026-04-27 15:24 55.40668 49.26170 8023 ft 249 kts 253°
2026-04-27 15:24 55.40588 49.23105 8022 ft 256 kts 268°
2026-04-27 15:24 55.40786 49.19976 8021 ft 258 kts 271°
2026-04-27 15:25 55.41024 49.16892 8015 ft 259 kts 271°
2026-04-27 15:25 55.41263 49.13752 8004 ft 259 kts 271°
2026-04-27 15:25 55.41492 49.10608 8004 ft 258 kts 271°
2026-04-27 15:25 55.41710 49.07471 8009 ft 258 kts 270°
2026-04-27 15:26 55.41924 49.04341 8008 ft 258 kts 270°
2026-04-27 15:26 55.42135 49.01212 8000 ft 257 kts 270°
2026-04-27 15:26 55.42345 48.98073 8065 ft 260 kts 270°
2026-04-27 15:26 55.42556 48.94876 8814 ft 265 kts 270°
2026-04-27 15:27 55.42769 48.91640 9830 ft 268 kts 270°
2026-04-27 15:27 55.42988 48.88244 10273 ft 292 kts 270°
2026-04-27 15:27 55.43225 48.84515 10538 ft 319 kts 271°
2026-04-27 15:27 55.43483 48.80543 11137 ft 332 kts 271°
2026-04-27 15:28 55.43752 48.76470 11969 ft 338 kts 271°
2026-04-27 15:28 55.44026 48.72339 12872 ft 342 kts 271°
2026-04-27 15:28 55.44299 48.68151 13681 ft 347 kts 271°
2026-04-27 15:28 55.44571 48.63952 14444 ft 351 kts 271°
2026-04-27 15:29 55.44846 48.59645 15233 ft 356 kts 270°
2026-04-27 15:29 55.45122 48.55290 15996 ft 360 kts 270°
2026-04-27 15:29 55.45547 48.50894 16741 ft 370 kts 277°
2026-04-27 15:29 55.46255 48.46486 17489 ft 377 kts 281°
2026-04-27 15:30 55.47065 48.42055 18162 ft 383 kts 281°
2026-04-27 15:30 55.47905 48.37569 18750 ft 388 kts 281°
2026-04-27 15:30 55.48748 48.33004 19346 ft 393 kts 280°
2026-04-27 15:30 55.49582 48.28388 19984 ft 397 kts 280°
2026-04-27 15:31 55.50409 48.23728 20625 ft 400 kts 280°
2026-04-27 15:31 55.51233 48.19006 21189 ft 405 kts 279°
2026-04-27 15:31 55.52060 48.14212 21712 ft 410 kts 279°
2026-04-27 15:31 55.52891 48.09361 22251 ft 415 kts 279°
2026-04-27 15:32 55.53728 48.04455 22812 ft 420 kts 278°
2026-04-27 15:32 55.54571 47.99500 23292 ft 424 kts 278°
2026-04-27 15:32 55.55423 47.94477 23715 ft 428 kts 278°
2026-04-27 15:32 55.56278 47.89430 24187 ft 431 kts 278°
2026-04-27 15:33 55.57137 47.84344 24673 ft 434 kts 279°
2026-04-27 15:33 55.58002 47.79246 25220 ft 433 kts 279°
2026-04-27 15:33 55.58862 47.74125 25653 ft 436 kts 279°
2026-04-27 15:33 55.59714 47.69021 26020 ft 441 kts 280°
2026-04-27 15:34 55.60595 47.63729 26378 ft 445 kts 280°
2026-04-27 15:34 55.61458 47.58532 26748 ft 448 kts 280°
2026-04-27 15:34 55.62337 47.53230 27118 ft 451 kts 280°
2026-04-27 15:34 55.63221 47.47879 27469 ft 454 kts 280°
2026-04-27 15:35 55.64108 47.42500 27794 ft 457 kts 280°
2026-04-27 15:35 55.65000 47.37072 28124 ft 460 kts 280°
2026-04-27 15:35 55.65894 47.31614 28448 ft 463 kts 279°
2026-04-27 15:35 55.66792 47.26122 28775 ft 466 kts 279°
2026-04-27 15:36 55.67692 47.20601 29186 ft 466 kts 279°
2026-04-27 15:36 55.68588 47.15086 29663 ft 465 kts 279°
2026-04-27 15:36 55.69480 47.09575 30100 ft 464 kts 280°
2026-04-27 15:36 55.70368 47.04073 30409 ft 465 kts 280°
2026-04-27 15:37 55.71255 46.98549 30705 ft 466 kts 280°
2026-04-27 15:37 55.72141 46.93023 31100 ft 465 kts 280°
2026-04-27 15:37 55.73023 46.87509 31492 ft 464 kts 280°
2026-04-27 15:37 55.73890 46.82066 31837 ft 464 kts 280°
2026-04-27 15:38 55.74766 46.76549 32170 ft 464 kts 280°
2026-04-27 15:38 55.75637 46.71042 32529 ft 463 kts 280°
2026-04-27 15:38 55.76506 46.65534 32966 ft 461 kts 281°
2026-04-27 15:38 55.77369 46.60054 33412 ft 459 kts 281°
2026-04-27 15:39 55.78224 46.54600 33702 ft 459 kts 281°
2026-04-27 15:39 55.79078 46.49132 33933 ft 460 kts 281°
2026-04-27 15:39 55.79823 46.43604 34132 ft 459 kts 276°
2026-04-27 15:39 55.80363 46.38024 34406 ft 457 kts 274°
2026-04-27 15:40 55.80825 46.32442 34719 ft 455 kts 274°
2026-04-27 15:40 55.81262 46.26876 35000 ft 455 kts 274°
2026-04-27 15:40 55.81700 46.21301 35231 ft 456 kts 274°
2026-04-27 15:40 55.82147 46.15723 35451 ft 456 kts 274°
2026-04-27 15:41 55.83068 46.04555 35460 ft 461 kts 274°
2026-04-27 15:41 55.84017 45.93251 35441 ft 456 kts 274°
2026-04-27 15:42 55.84937 45.82216 35476 ft 453 kts 275°
2026-04-27 15:42 55.85850 45.71113 35459 ft 453 kts 274°
2026-04-27 15:43 55.86752 45.59993 35437 ft 454 kts 274°
2026-04-27 15:43 55.87645 45.48852 35435 ft 454 kts 274°
2026-04-27 15:44 55.88529 45.37702 35421 ft 455 kts 274°
2026-04-27 15:44 55.89405 45.26525 35423 ft 456 kts 274°
2026-04-27 15:45 55.90272 45.15325 35431 ft 456 kts 274°
2026-04-27 15:45 55.91130 45.04101 35418 ft 457 kts 274°
2026-04-27 15:46 55.91980 44.92847 35410 ft 458 kts 274°
2026-04-27 15:46 55.92821 44.81569 35397 ft 459 kts 274°
2026-04-27 15:47 55.93653 44.70273 35402 ft 459 kts 274°
2026-04-27 15:47 55.94470 44.59049 35380 ft 459 kts 274°
2026-04-27 15:48 55.95091 44.50409 35387 ft 459 kts 274°
2026-04-27 15:49 55.96289 44.33471 35387 ft 458 kts 274°
2026-04-27 15:49 55.97077 44.22194 35369 ft 458 kts 274°
2026-04-27 15:50 55.97851 44.10924 35366 ft 457 kts 274°
2026-04-27 15:50 55.98610 43.99667 35349 ft 457 kts 273°
2026-04-27 15:51 55.99362 43.88405 35344 ft 456 kts 274°
2026-04-27 15:51 56.00105 43.77139 35354 ft 456 kts 274°
2026-04-27 15:52 56.00833 43.65883 35338 ft 456 kts 275°
2026-04-27 15:52 56.01556 43.54615 35334 ft 456 kts 274°
2026-04-27 15:53 56.02269 43.43355 35342 ft 455 kts 274°
2026-04-27 15:53 56.02932 43.32091 35331 ft 455 kts 271°
2026-04-27 15:54 56.03171 43.20807 35333 ft 454 kts 268°
2026-04-27 15:54 56.03288 43.09594 35328 ft 454 kts 269°
2026-04-27 15:55 56.03434 42.98312 35336 ft 454 kts 268°
2026-04-27 15:55 56.03572 42.88849 35323 ft 454 kts 269°
2026-04-27 15:56 56.03757 42.75710 35320 ft 455 kts 269°
2026-04-27 15:56 56.03899 42.64412 35322 ft 454 kts 269°
2026-04-27 15:57 56.04830 42.53234 35333 ft 459 kts 285°
2026-04-27 15:57 56.07074 42.44596 35306 ft 465 kts 299°
2026-04-27 15:58 56.11275 42.33382 35288 ft 466 kts 302°
2026-04-27 15:58 56.14877 42.23718 35283 ft 466 kts 301°
2026-04-27 15:59 56.17844 42.15553 35253 ft 466 kts 301°
2026-04-27 15:59 56.21516 42.05946 35263 ft 467 kts 304°
2026-04-27 16:00 56.25478 41.96756 35240 ft 468 kts 305°
2026-04-27 16:00 56.29483 41.87546 35223 ft 467 kts 306°
2026-04-27 16:01 56.33458 41.78252 35223 ft 467 kts 306°
2026-04-27 16:01 56.37396 41.68932 35202 ft 467 kts 306°
2026-04-27 16:02 56.41324 41.59601 35203 ft 466 kts 304°
2026-04-27 16:02 56.45242 41.50267 35201 ft 466 kts 306°
2026-04-27 16:03 56.49157 41.40898 35198 ft 466 kts 306°
2026-04-27 16:03 56.53032 41.31595 35167 ft 466 kts 306°
2026-04-27 16:04 56.56907 41.22256 35165 ft 466 kts 306°
2026-04-27 16:04 56.60746 41.12805 35136 ft 464 kts 300°
2026-04-27 16:05 56.63363 41.02217 35176 ft 459 kts 285°
2026-04-27 16:05 56.65221 40.91078 35146 ft 460 kts 284°
2026-04-27 16:06 56.67069 40.79944 35141 ft 460 kts 285°
2026-04-27 16:06 56.68901 40.69087 35111 ft 460 kts 285°
2026-04-27 16:07 56.70791 40.57949 35143 ft 460 kts 285°
2026-04-27 16:07 56.72663 40.46857 35123 ft 461 kts 286°
2026-04-27 16:08 56.74534 40.35681 35118 ft 461 kts 285°
2026-04-27 16:08 56.76394 40.24502 35109 ft 461 kts 285°
2026-04-27 16:09 56.78225 40.13412 35104 ft 460 kts 285°
2026-04-27 16:09 56.78966 40.08905 35096 ft 460 kts 286°
2026-04-27 16:10 56.82625 39.86534 35095 ft 459 kts 286°
2026-04-27 16:11 56.85347 39.69757 35087 ft 459 kts 286°
2026-04-27 16:12 56.88031 39.53061 35079 ft 458 kts 286°
2026-04-27 16:13 56.90703 39.36272 35078 ft 458 kts 285°
2026-04-27 16:13 56.93349 39.19477 35073 ft 458 kts 286°
2026-04-27 16:14 56.96845 38.97026 35080 ft 459 kts 285°
2026-04-27 16:15 57.00307 38.74498 35092 ft 459 kts 285°
2026-04-27 16:16 57.03720 38.51978 35112 ft 459 kts 285°
2026-04-27 16:17 57.07092 38.29423 35111 ft 457 kts 285°
2026-04-27 16:18 57.10415 38.06887 35121 ft 456 kts 285°
2026-04-27 16:19 57.12059 37.95621 35140 ft 456 kts 285°
2026-04-27 16:20 57.15318 37.73055 35133 ft 456 kts 285°
2026-04-27 16:21 57.18118 37.56307 35156 ft 456 kts 292°
2026-04-27 16:22 57.22900 37.34615 35163 ft 457 kts 292°
2026-04-27 16:22 57.26384 37.18291 35214 ft 457 kts 292°
2026-04-27 16:23 57.29837 37.01845 35233 ft 458 kts 291°
2026-04-27 16:24 57.32128 36.90865 35239 ft 458 kts 292°
2026-04-27 16:25 57.36677 36.68888 35270 ft 456 kts 291°
2026-04-27 16:26 57.41170 36.46960 35288 ft 454 kts 292°
2026-04-27 16:27 57.45606 36.25056 35326 ft 452 kts 292°
2026-04-27 16:28 57.51086 35.97735 35360 ft 452 kts 292°
2026-04-27 16:29 57.56552 35.70266 35391 ft 453 kts 291°
2026-04-27 16:30 57.60898 35.48197 35421 ft 453 kts 292°
2026-04-27 16:31 57.66546 35.20728 35473 ft 453 kts 292°
2026-04-27 16:32 57.69881 35.04279 35480 ft 453 kts 291°
2026-04-27 16:33 57.72783 34.93886 35493 ft 450 kts 308°
2026-04-27 16:33 57.74786 34.89408 35519 ft 448 kts 312°
2026-04-27 16:33 57.78951 34.80694 35495 ft 449 kts 313°
2026-04-27 16:34 57.83110 34.71945 35498 ft 448 kts 313°
2026-04-27 16:34 57.87215 34.63146 35507 ft 447 kts 312°
2026-04-27 16:35 57.91300 34.54320 35509 ft 447 kts 311°
2026-04-27 16:36 57.97382 34.41113 35540 ft 447 kts 312°
2026-04-27 16:36 58.01274 34.32619 35539 ft 447 kts 311°
2026-04-27 16:37 58.05350 34.23711 35551 ft 448 kts 311°
2026-04-27 16:37 58.09423 34.14776 35558 ft 449 kts 312°
2026-04-27 16:38 58.13489 34.05821 35557 ft 449 kts 311°
2026-04-27 16:38 58.17554 33.96830 35565 ft 449 kts 311°
2026-04-27 16:39 58.21573 33.87909 35566 ft 447 kts 312°
2026-04-27 16:39 58.23567 33.83466 35537 ft 433 kts 312°
2026-04-27 16:39 58.25484 33.79185 35437 ft 420 kts 312°
2026-04-27 16:39 58.27363 33.74977 34934 ft 419 kts 311°
2026-04-27 16:40 58.29266 33.70725 34125 ft 426 kts 311°
2026-04-27 16:40 58.31214 33.66366 33102 ft 437 kts 311°
2026-04-27 16:40 58.33186 33.61947 32299 ft 438 kts 313°
2026-04-27 16:40 58.35148 33.57530 31715 ft 436 kts 313°
2026-04-27 16:41 58.37094 33.53121 31156 ft 432 kts 311°
2026-04-27 16:41 58.39014 33.48759 30683 ft 428 kts 311°
2026-04-27 16:41 58.40921 33.44444 30234 ft 423 kts 312°
2026-04-27 16:41 58.42813 33.40164 29801 ft 420 kts 313°
2026-04-27 16:42 58.44691 33.35911 29267 ft 417 kts 313°
2026-04-27 16:42 58.46544 33.31693 28785 ft 412 kts 312°
2026-04-27 16:42 58.48372 33.27534 28323 ft 407 kts 314°
2026-04-27 16:42 58.50178 33.23413 27893 ft 401 kts 313°
2026-04-27 16:43 58.51938 33.19380 27457 ft 397 kts 310°
2026-04-27 16:43 58.53674 33.15325 26985 ft 392 kts 312°
2026-04-27 16:43 58.55436 33.11302 26174 ft 397 kts 315°
2026-04-27 16:43 58.57240 33.07264 25479 ft 399 kts 314°
2026-04-27 16:44 58.59014 33.03214 24968 ft 396 kts 313°
2026-04-27 16:44 58.60759 32.99170 24543 ft 391 kts 311°
2026-04-27 16:44 58.62479 32.95164 24117 ft 386 kts 311°
2026-04-27 16:44 58.64179 32.91223 23709 ft 382 kts 313°
2026-04-27 16:45 58.65862 32.87319 23317 ft 377 kts 313°
2026-04-27 16:45 58.66990 32.84700 23013 ft 375 kts 313°
2026-04-27 16:45 58.68641 32.80859 22564 ft 370 kts 313°
2026-04-27 16:45 58.70264 32.77069 22182 ft 364 kts 311°
2026-04-27 16:46 58.71843 32.73386 21806 ft 359 kts 312°
2026-04-27 16:46 58.73420 32.69706 21414 ft 354 kts 312°
2026-04-27 16:46 58.74975 32.66075 21065 ft 348 kts 314°
2026-04-27 16:46 58.76507 32.62487 20681 ft 344 kts 311°
2026-04-27 16:47 58.78013 32.58954 20331 ft 339 kts 314°
2026-04-27 16:47 58.79501 32.55463 19957 ft 335 kts 314°
2026-04-27 16:47 58.80963 32.52015 19606 ft 332 kts 312°
2026-04-27 16:47 58.82427 32.48568 19259 ft 332 kts 313°
2026-04-27 16:48 58.83887 32.45127 18901 ft 333 kts 313°
2026-04-27 16:48 58.85374 32.41622 18546 ft 341 kts 313°
2026-04-27 16:48 58.86887 32.38051 18175 ft 342 kts 313°
2026-04-27 16:49 58.89854 32.31017 17400 ft 332 kts 313°
2026-04-27 16:49 58.91298 32.27581 17043 ft 326 kts 313°
2026-04-27 16:49 58.92698 32.24248 16697 ft 321 kts 313°
2026-04-27 16:49 58.94111 32.20877 16351 ft 315 kts 313°
2026-04-27 16:50 58.95467 32.17642 16013 ft 311 kts 313°
2026-04-27 16:50 58.96818 32.14411 15675 ft 306 kts 313°
2026-04-27 16:50 58.98147 32.11233 15350 ft 301 kts 313°
2026-04-27 16:50 58.99454 32.08100 15037 ft 296 kts 313°
2026-04-27 16:51 59.00743 32.05006 14714 ft 293 kts 313°
2026-04-27 16:51 59.02026 32.01926 14389 ft 294 kts 313°
2026-04-27 16:51 59.03310 31.98841 14070 ft 295 kts 313°
2026-04-27 16:51 59.04613 31.95706 13746 ft 300 kts 313°
2026-04-27 16:52 59.05925 31.92543 13422 ft 300 kts 314°
2026-04-27 16:52 59.07221 31.89409 13074 ft 294 kts 314°
2026-04-27 16:52 59.08490 31.86336 12751 ft 288 kts 314°
2026-04-27 16:52 59.09716 31.83364 12442 ft 283 kts 314°
2026-04-27 16:53 59.10923 31.80490 12158 ft 277 kts 317°
2026-04-27 16:53 59.12267 31.77828 11890 ft 277 kts 321°
2026-04-27 16:53 59.13682 31.75215 11647 ft 283 kts 321°
2026-04-27 16:53 59.15121 31.72564 11387 ft 287 kts 321°
2026-04-27 16:54 59.16564 31.69881 11125 ft 286 kts 321°
2026-04-27 16:54 59.17989 31.67207 10824 ft 281 kts 320°
2026-04-27 16:54 59.19377 31.64583 10542 ft 275 kts 320°
2026-04-27 16:54 59.20737 31.62003 10231 ft 271 kts 320°
2026-04-27 16:55 59.22055 31.59496 10122 ft 259 kts 320°
2026-04-27 16:55 59.23320 31.57082 10022 ft 249 kts 320°
2026-04-27 16:55 59.24531 31.54769 9986 ft 237 kts 321°
2026-04-27 16:55 59.25682 31.52568 9977 ft 230 kts 321°
2026-04-27 16:56 59.26824 31.50389 9898 ft 230 kts 321°
2026-04-27 16:56 59.27994 31.48156 9677 ft 239 kts 321°
2026-04-27 16:56 59.29197 31.45856 9404 ft 242 kts 321°
2026-04-27 16:56 59.30394 31.43557 9110 ft 239 kts 321°
2026-04-27 16:57 59.31570 31.41293 8880 ft 235 kts 321°
2026-04-27 16:57 59.32728 31.39063 8626 ft 231 kts 321°
2026-04-27 16:57 59.33850 31.36899 8380 ft 228 kts 321°
2026-04-27 16:57 59.34972 31.34736 8148 ft 224 kts 321°
2026-04-27 16:58 59.36075 31.32607 7909 ft 221 kts 321°
2026-04-27 16:58 59.37160 31.30509 7687 ft 217 kts 321°
2026-04-27 16:58 59.38230 31.28441 7458 ft 214 kts 321°
2026-04-27 16:58 59.39284 31.26402 7233 ft 212 kts 322°
2026-04-27 16:59 59.40330 31.24378 7004 ft 212 kts 322°
2026-04-27 16:59 59.41396 31.22316 6762 ft 218 kts 321°
2026-04-27 16:59 59.42497 31.20186 6521 ft 226 kts 321°
2026-04-27 16:59 59.43623 31.18000 6259 ft 228 kts 321°
2026-04-27 17:00 59.45480 31.14384 5795 ft 224 kts 321°
2026-04-27 17:00 59.46948 31.11522 5440 ft 220 kts 321°
2026-04-27 17:00 59.48024 31.09422 5268 ft 214 kts 321°
2026-04-27 17:01 59.48989 31.07534 5179 ft 206 kts 321°
2026-04-27 17:01 59.50000 31.05557 5077 ft 205 kts 321°
2026-04-27 17:01 59.51013 31.03631 4994 ft 203 kts 327°
2026-04-27 17:01 59.52251 31.02543 4983 ft 192 kts 347°
2026-04-27 17:02 59.53564 31.02305 4980 ft 189 kts
2026-04-27 17:02 59.54881 31.02416 4966 ft 189 kts
2026-04-27 17:02 59.56195 31.02506 4959 ft 189 kts
2026-04-27 17:02 59.57519 31.02593 4970 ft 192 kts
2026-04-27 17:03 59.58860 31.02711 4964 ft 194 kts
2026-04-27 17:03 59.59910 31.03369 4966 ft 197 kts 22°
2026-04-27 17:03 59.61118 31.04661 4963 ft 197 kts 22°
2026-04-27 17:03 59.62329 31.05933 4965 ft 197 kts 22°
2026-04-27 17:04 59.63539 31.07204 4962 ft 197 kts 22°
2026-04-27 17:04 59.64750 31.08477 4965 ft 197 kts 22°
2026-04-27 17:04 59.65962 31.09752 4960 ft 197 kts 22°
2026-04-27 17:04 59.67188 31.10951 4958 ft 195 kts 14°
2026-04-27 17:05 59.68514 31.11320 4963 ft 193 kts
2026-04-27 17:05 59.69850 31.11584 4961 ft 193 kts
2026-04-27 17:05 59.71186 31.11861 4957 ft 193 kts
2026-04-27 17:05 59.72504 31.12134 4954 ft 193 kts
2026-04-27 17:06 59.73852 31.12412 4954 ft 193 kts
2026-04-27 17:06 59.75166 31.12682 4966 ft 192 kts
2026-04-27 17:06 59.76501 31.12673 4960 ft 193 kts 348°
2026-04-27 17:06 59.77788 31.11912 4965 ft 193 kts 346°
2026-04-27 17:07 59.79078 31.11164 4974 ft 193 kts 346°
2026-04-27 17:07 59.80369 31.10420 4961 ft 193 kts 346°
2026-04-27 17:07 59.81543 31.09088 4964 ft 202 kts 320°
2026-04-27 17:07 59.82271 31.06639 4956 ft 216 kts 295°
2026-04-27 17:08 59.82326 31.03540 4810 ft 239 kts 263°
2026-04-27 17:08 59.81519 31.00529 4722 ft 255 kts 239°
2026-04-27 17:08 59.80432 30.97999 4579 ft 258 kts 234°
2026-04-27 17:08 59.79253 30.95462 4449 ft 256 kts 233°
2026-04-27 17:09 59.78051 30.92894 4307 ft 252 kts 234°
2026-04-27 17:09 59.76866 30.90340 4164 ft 251 kts 234°
2026-04-27 17:09 59.75692 30.87786 4051 ft 250 kts 234°
2026-04-27 17:09 59.74523 30.85230 3932 ft 250 kts 235°
2026-04-27 17:10 59.73360 30.82672 3781 ft 249 kts 235°
2026-04-27 17:10 59.72201 30.80125 3678 ft 248 kts 235°
2026-04-27 17:10 59.71046 30.77587 3544 ft 247 kts 235°
2026-04-27 17:10 59.69899 30.75068 3415 ft 245 kts 235°
2026-04-27 17:11 59.68787 30.72614 3320 ft 232 kts 239°
2026-04-27 17:11 59.68327 30.67445 3115 ft 173 kts 298°
2026-04-27 17:11 59.68829 30.65419 3019 ft 157 kts 313°
2026-04-27 17:12 59.70372 30.62752 2869 ft 146 kts 329°
2026-04-27 17:12 59.71207 30.61581 2801 ft 148 kts 329°
2026-04-27 17:12 59.72034 30.60426 2724 ft 147 kts 329°
2026-04-27 17:13 59.72868 30.59261 2628 ft 147 kts 329°
2026-04-27 17:13 59.73703 30.58095 2526 ft 147 kts 329°
2026-04-27 17:13 59.74505 30.56838 2477 ft 148 kts 316°
2026-04-27 17:13 59.75010 30.55026 2479 ft 156 kts 299°
2026-04-27 17:14 59.75288 30.52893 2494 ft 162 kts 295°
2026-04-27 17:14 59.75649 30.50806 2467 ft 160 kts 300°
2026-04-27 17:14 59.76014 30.48713 2283 ft 160 kts 297°
2026-04-27 17:14 59.76320 30.46712 2095 ft 145 kts 296°
2026-04-27 17:15 59.76589 30.44881 1873 ft 132 kts 297°
2026-04-27 17:15 59.76845 30.43156 1704 ft 130 kts 297°
2026-04-27 17:15 59.77096 30.41452 1522 ft 129 kts 297°
2026-04-27 17:15 59.77346 30.39759 1329 ft 129 kts 295°
2026-04-27 17:16 59.77601 30.38021 1151 ft 133 kts 293°
2026-04-27 17:16 59.77866 30.36215 949 ft 138 kts 291°
2026-04-27 17:16 59.78136 30.34369 754 ft 139 kts 290°
2026-04-27 17:16 59.78408 30.32527 563 ft 139 kts 290°
2026-04-27 17:17 59.78683 30.30665 367 ft 140 kts 289°
2026-04-27 17:17 59.78942 30.28831 203 ft 137 kts 288°
2026-04-27 17:17 59.79214 30.27025 99 ft 132 kts 291°
2026-04-27 17:18 59.79662 30.24154 78 ft 94 kts 284°
2026-04-27 17:18 59.79804 30.23134 78 ft 57 kts 285°
2026-04-27 17:18 59.79915 30.22426 71 ft 52 kts 288°